Flag for Germany Weather past 2 weeks in Barsinghausen, Lower Saxony, Germany

Now
63 °F

Fog.


Feels Like: 63 °F
Forecast: 54 / 64 °F
Wind: 3 mph from Southwest

Location: Wunstorf Airport

Current Time: Oct 1, 2014 at 2:23:15 PM

Latest Report: Oct 1, 2014 at 1:20 PM


Visibility: 3 mi

Pressure: 30.33 "Hg

Humidity: 83%

Dew point: 57 °F

Location of BarsinghausenLocation

Historic Weather in Barsinghausen — Graph

°F

Barsinghausen temperature yesterday

Maximum temperature yesterday: 66 °F (at 2:20 PM)
Minimum temperature yesterday: 55 °F (at 11:20 PM)
Average temperature yesterday: 62 °F

Past Weeks' High & Low Weather Summary

 TemperatureHumidityPressure
High77 °F (Sep 18, 3:20 PM)100% (Sep 17, 3:20 AM)30.39 "Hg (Sep 17, 3:20 AM)
Low43 °F (Sep 28, 5:20 AM)46% (Sep 21, 4:20 PM)29.80 "Hg (Sep 24, 4:20 PM)
Average60 °F82%30.06 "Hg
* Reported Sep 16 12:20 PM — Oct 1 12:20 PM, Barsinghausen, Weather by CustomWeather, © 2014

Note: Actual official high and low records may vary slightly from our data, if they occured in-between our weather recording intervals... More about our weather records

Advertising

Barsinghausen weather history for previous 24 hours

 ConditionsComfort  
Time TempWeatherWind HumidityBarometerVisibility
12:20 PM
Oct 1
63 °FFog.5 mph88%30.33 "Hg3 mi
11:20 AM61 °FFog.2 mph88%30.33 "Hg2 mi
10:20 AM59 °FFog.5 mph88%30.30 "Hg2 mi
9:20 AM55 °FFog.2 mph100%30.30 "Hg2 mi
8:20 AM52 °FFog.3 mph100%30.30 "Hg2 mi
7:20 AM52 °FFog.2 mph100%30.27 "Hg1 mi
6:20 AM52 °FCool.3 mph100%30.27 "Hg0 mi
5:20 AM50 °FCool.No wind100%30.30 "Hg0 mi
4:20 AM52 °FCool.3 mph100%30.30 "Hg1 mi
3:20 AM55 °FCool.3 mph94%30.30 "Hg2 mi
2:20 AM52 °FCool.1 mph100%30.27 "Hg1 mi
1:20 AM54 °FCool.2 mph94%30.27 "Hg0 mi
12:20 AM57 °FCool.2 mph88%30.27 "Hg2 mi
11:20 PM
Sep 30
55 °FCool.3 mph94%30.27 "Hg2 mi
10:20 PM57 °FCool.5 mph88%30.27 "Hg2 mi
8:20 PM57 °FCool.3 mph88%30.27 "Hg3 mi
7:20 PM63 °FMild.5 mph77%30.24 "Hg3 mi
6:20 PM64 °FMild.3 mph78%30.24 "Hg4 mi
5:20 PM66 °FMild.6 mph68%30.24 "Hg5 mi
4:20 PM66 °FMild.8 mph68%30.24 "Hg5 mi
3:20 PM66 °FPartly sunny.9 mph73%30.24 "HgN/A
2:20 PM66 °FPartly sunny.12 mph73%30.24 "Hg4 mi
2:02 PM64 °FBroken clouds.8 mph88%30.24 "Hg4 mi
Weather by CustomWeather, © 2014

See weather overviewHow to use our weather pages